Location: PSU-Greenbush Astrophysical Observatory
(37.5140°N, 94.9880°W)
Time: 21:27:32
(UTC-06:00)

Altair - Pass Details

Date: 26 January 2020
Orbit: 1502 x 1682 km, 47.2° (Epoch: 18 February)

Event Time Altitude Azimuth Distance (km) Brightness Sun altitude
Rises 09:14:48 0° 250° (WSW) 4,864 9.9 17.0°
Reaches altitude 10° 09:17:57 10° 252° (WSW) 3,897 9.4 17.5°
Maximum altitude 09:27:57 68° 335° (NNW) 1,782 7.9 19.0°
Drops below altitude 10° 09:38:07 10° 59° (ENE) 3,943 9.9 20.4°
Sets 09:41:20 0° 62° (ENE) 4,924 10.3 20.8°
